Weather in Bol'shiye Gory

Russia / Republic of Karelia     61°18′19″N   32°28′14″E
temp.,
°C
wind,
m/s
gust,
m/s
humid.,
%
clouds,
%
prec.,
mm/h
press.,
hPa
HPBL,
m
23 october, sat
sat2300:00+4wsw61196100 4.1 982966
03:00+4wsw4997100 5.2 985685
06:00+4wnw2395100 0.4 987754
09:00+2ne4996100 0.9 992421
12:00+2ne4990100 0.6 996724
15:00+3nne498196 0.6 1000867
18:00+2nne498098 0.0 1004810
21:00+2nne4108198 0.0 1007841
24 october, sun
sun2400:00+1n41086100 0.0 1010626
03:000nnw4989100 0.0 1012420
06:00−1nnw399090 0.0 1014348
09:00−1nnw39855 0.0 1017397
12:00+2nnw36665 0.0 1019623
15:00+2nw35645 0.0 1021799
18:00−1nw247961 0.0 102278
21:00−1wnw118230 0.0 102313
25 october, mon
mon2500:00−1sw1278100 0.0 102347
03:00+1ssw2774100 0.0 1021253
06:00+1s41098100 0.6 1018653
09:00+1s51298100 6.0 1015731
12:00+4ssw51397100 5.1 1012794
15:00+7wsw61496100 7.8 1010723
18:00+7wsw61394100 1.0 1010758
21:00+7wsw51293100 1.3 1010691
26 october, tue
tue2600:00+7wsw51295100 0.8 1011652
03:00+7wsw41095100 1.0 1011571
06:00+7wsw41094100 0.1 1010544
09:00+6sw41096100 0.8 1010569
12:00+6sw41095100 1.3 1010546
15:00+6sw51092100 1.4 1009552
18:00+6sw51092100 0.3 1009565
21:00+6sw51193100 0.9 1008549
27 october, wed
wed2700:00+6sw51294100 0.3 1007604
03:00+6sw51397100 1.6 1006645
06:00+7wsw41091100 0.1 1005604
09:00+7wsw4118399 0.2 1004537
12:00+7wsw598594 0.1 1005880
15:00+6w51084100 0.1 10061155
18:00+6wnw41085100 0.1 1007834
21:00+5wnw3988100 0.2 1009713